Date String (YYYY-MM-DD hh:mm:ss) UTC,Instrument flags,Ambient pressure (hPa),Sample flow (lpm),Bypass flow (lpm),Sample temperature (°C),Ambient temperature (°C),ASC tube jacket temperature (°C),LED temperature (°C),Box temperature (°C),Sample RH (%),Span deviation,Mass concentration (μg/m³),Mass concentration (μg/m³),Mass concentration (μg/m³)
DateTimeUTC,F1_M11,P_M11,Q1_M11,Q2_M11,T1_M11,T2_M11,T3_M11,T4_M11,T5_M11,U1_M11,ZSPAN_M11,X0_M11,X2_M11,X1_M11
2021-09-14 12:00:00,,0828.1,4.99,0.00,29.5,28.9,00.0,38.7,31.3,24.5,0000.0,0013.11,0004.96,0003.89
2021-09-14 12:01:00,,0828.1,5.01,0.00,29.6,28.9,00.0,38.7,31.3,24.5,0000.0,0013.78,0005.01,0003.91
2021-09-14 12:02:00,,0828.1,4.99,0.00,29.6,28.9,00.0,38.7,31.3,24.4,0000.0,0013.54,0005.01,0003.93
2021-09-14 12:03:00,,0828.1,5.01,0.00,29.6,28.9,00.0,38.7,31.3,24.4,0000.0,0014.02,0005.04,0003.94
2021-09-14 12:04:00,,0828.1,4.99,0.00,29.6,28.9,00.0,38.7,31.3,24.2,0000.0,0014.29,0005.05,0003.93
2021-09-14 12:05:00,,0828.1,5.00,0.00,29.6,28.9,00.0,38.7,31.3,24.0,0000.0,0014.38,0005.06,0003.92
2021-09-14 12:06:00,,0828.2,4.98,0.00,29.6,28.9,00.0,38.7,31.3,23.9,0000.0,0014.21,0005.01,0003.91
2021-09-14 12:07:00,,0828.2,5.01,0.00,29.6,28.9,00.0,38.7,31.3,24.0,0000.0,0014.32,0004.95,0003.89
2021-09-14 12:08:00,,0828.2,5.00,0.00,29.6,28.9,00.0,38.7,31.3,24.0,0000.0,0013.73,0004.93,0003.87
2021-09-14 12:09:00,,0828.2,4.98,0.00,29.6,28.9,00.0,38.7,31.3,24.0,0000.0,0013.81,0004.95,0003.85
2021-09-14 12:10:00,,0828.3,5.01,0.00,29.6,28.9,00.0,38.7,31.3,24.0,0000.0,0013.75,0004.93,0003.81
2021-09-14 12:11:00,,0828.3,5.00,0.00,29.6,28.9,00.0,38.7,31.3,24.0,0000.0,0012.67,0004.85,0003.77
2021-09-14 12:12:00,,0828.3,4.99,0.00,29.5,28.9,00.0,38.7,31.3,24.1,0000.0,0012.18,0004.76,0003.73
2021-09-14 12:13:00,,0828.3,5.00,0.00,29.5,28.9,00.0,38.7,31.3,24.0,0000.0,0013.27,0004.73,0003.70
2021-09-14 12:14:00,,0828.3,5.00,0.00,29.5,28.8,00.0,38.7,31.2,24.0,0000.0,0013.50,0004.68,0003.66
2021-09-14 12:15:00,,0828.3,5.00,0.00,29.5,28.8,00.0,38.7,31.2,23.8,0000.0,0013.04,0004.64,0003.63
2021-09-14 12:16:00,,0828.3,5.00,0.00,29.5,28.8,00.0,38.7,31.2,23.7,0000.0,0013.06,0004.67,0003.61
2021-09-14 12:17:00,,0828.4,5.00,0.00,29.5,28.8,00.0,38.7,31.2,23.5,0000.0,0013.28,0004.73,0003.60
2021-09-14 12:18:00,,0828.3,5.01,0.00,29.5,28.8,00.0,38.7,31.2,23.4,0000.0,0013.48,0004.77,0003.59
2021-09-14 12:19:00,,0828.3,4.99,0.00,29.5,28.8,00.0,38.7,31.2,23.2,0000.0,0013.38,0004.69,0003.58
2021-09-14 12:20:00,,0828.3,5.01,0.00,29.5,28.8,00.0,38.7,31.2,23.1,0000.0,0013.33,0004.67,0003.56
2021-09-14 12:21:00,,0828.3,5.00,0.00,29.5,28.8,00.0,38.7,31.2,23.0,0000.0,0013.06,0004.64,0003.56
2021-09-14 12:22:00,,0828.3,5.00,0.00,29.5,28.8,00.0,38.7,31.1,22.9,0000.0,0013.16,0004.65,0003.56
2021-09-14 12:23:00,,0828.4,5.01,0.00,29.4,28.7,00.0,38.7,31.1,22.8,0000.0,0013.27,0004.65,0003.57
2021-09-14 12:24:00,,0828.3,4.99,0.00,29.4,28.7,00.0,38.6,31.1,22.9,0000.0,0012.88,0004.66,0003.58
2021-09-14 12:25:00,,0828.3,5.00,0.00,29.4,28.7,00.0,38.6,31.1,22.9,0000.0,0012.29,0004.67,0003.60
2021-09-14 12:26:00,,0828.4,5.01,0.00,29.4,28.7,00.0,38.6,31.1,22.8,0000.0,0011.96,0004.66,0003.61
2021-09-14 12:27:00,,0828.3,5.00,0.00,29.4,28.7,00.0,38.6,31.1,22.9,0000.0,0011.76,0004.59,0003.61
2021-09-14 12:28:00,,0828.3,5.01,0.00,29.4,28.7,00.0,38.6,31.1,22.8,0000.0,0012.50,0004.54,0003.61
2021-09-14 12:29:00,,0828.3,5.00,0.00,29.4,28.7,00.0,38.6,31.1,22.9,0000.0,0012.07,0004.50,0003.61
2021-09-14 12:30:00,,0828.3,5.00,0.00,29.4,28.7,00.0,38.6,31.1,22.9,0000.0,0012.55,0004.54,0003.62
2021-09-14 12:31:00,,0828.4,5.00,0.00,29.4,28.7,00.0,38.6,31.1,22.9,0000.0,0012.61,0004.53,0003.63
2021-09-14 12:32:00,,0828.3,4.99,0.00,29.4,28.6,00.0,38.6,31.1,22.9,0000.0,0012.76,0004.54,0003.64
2021-09-14 12:33:00,,0828.3,5.00,0.00,29.4,28.6,00.0,38.6,31.1,23.0,0000.0,0012.56,0004.58,0003.64
2021-09-14 12:34:00,,0828.3,4.99,0.00,29.4,28.6,00.0,38.6,31.1,23.1,0000.0,0012.24,0004.56,0003.64
2021-09-14 12:35:00,,0828.3,5.00,0.00,29.4,28.6,00.0,38.6,31.1,22.9,0000.0,0011.48,0004.49,0003.61
2021-09-14 12:36:00,,0828.3,4.99,0.00,29.4,28.6,00.0,38.6,31.1,23.2,0000.0,0011.40,0004.52,0003.61
2021-09-14 12:37:00,,0828.4,5.00,0.00,29.3,28.6,00.0,38.6,31.1,23.2,0000.0,0012.47,0004.53,0003.60
2021-09-14 12:38:00,,0828.4,5.01,0.00,29.3,28.6,00.0,38.6,31.0,23.4,0000.0,0012.63,0004.57,0003.59
2021-09-14 12:39:00,,0828.5,5.00,0.00,29.3,28.6,00.0,38.6,31.0,23.4,0000.0,0012.88,0004.57,0003.58
2021-09-14 12:40:00,,0828.5,4.99,0.00,29.3,28.6,00.0,38.5,31.0,23.3,0000.0,0013.15,0004.59,0003.58
2021-09-14 12:41:00,,0828.5,5.00,0.00,29.3,28.6,00.0,38.5,31.0,23.1,0000.0,0012.65,0004.61,0003.59
2021-09-14 12:42:00,,0828.4,4.99,0.00,29.3,28.6,00.0,38.5,31.0,23.2,0000.0,0012.77,0004.64,0003.59
2021-09-14 12:43:00,,0828.4,5.01,0.00,29.3,28.6,00.0,38.5,31.0,23.0,0000.0,0013.07,0004.63,0003.58
2021-09-14 12:44:00,,0828.4,4.99,0.00,29.3,28.6,00.0,38.5,31.0,23.2,0000.0,0013.84,0004.59,0003.57
2021-09-14 12:45:00,,0828.3,5.00,0.00,29.3,28.6,00.0,38.5,31.0,23.4,0000.0,0014.36,0004.59,0003.56
2021-09-14 12:46:00,,0828.4,5.00,0.00,29.3,28.6,00.0,38.5,31.0,23.7,0000.0,0014.48,0004.62,0003.56
2021-09-14 12:47:00,,0828.4,5.00,0.00,29.3,28.6,00.0,38.5,31.0,23.7,0000.0,0014.55,0004.56,0003.55
2021-09-14 12:48:00,,0828.5,5.00,0.00,29.3,28.6,00.0,38.5,31.0,23.7,0000.0,0014.22,0004.53,0003.55
2021-09-14 12:49:00,,0828.5,4.99,0.00,29.3,28.6,00.0,38.5,31.0,23.5,0000.0,0014.43,0004.50,0003.55
2021-09-14 12:50:00,,0828.5,5.00,0.00,29.3,28.6,00.0,38.5,31.0,23.3,0000.0,0013.61,0004.51,0003.56
2021-09-14 12:51:00,,0828.5,5.00,0.00,29.3,28.6,00.0,38.5,31.0,23.3,0000.0,0013.00,0004.48,0003.56
2021-09-14 12:52:00,,0828.5,5.01,0.00,29.3,28.6,00.0,38.5,31.0,23.2,0000.0,0013.23,0004.45,0003.55
2021-09-14 12:53:00,,0828.5,5.00,0.00,29.3,28.6,00.0,38.5,31.0,23.3,0000.0,0013.39,0004.39,0003.54
2021-09-14 12:54:00,,0829.0,5.01,0.00,29.3,28.6,00.0,38.5,31.1,23.3,0000.0,0013.17,0004.38,0003.54
2021-09-14 12:55:00,,0829.1,4.99,0.00,29.3,28.7,00.0,38.5,31.1,23.1,0000.0,0012.79,0004.37,0003.54
2021-09-14 12:56:00,,0829.1,5.01,0.00,29.3,28.7,00.0,38.5,31.1,23.1,0000.0,0012.38,0004.37,0003.54
2021-09-14 12:57:00,,0829.0,4.99,0.00,29.3,28.7,00.0,38.5,31.1,22.8,0000.0,0012.38,0004.42,0003.55
2021-09-14 12:58:00,,0828.9,5.00,0.00,29.3,28.7,00.0,38.5,31.0,22.8,0000.0,0013.76,0004.42,0003.57
2021-09-14 12:59:00,,0829.0,5.00,0.00,29.3,28.7,00.0,38.5,31.0,22.8,0000.0,0015.17,0004.47,0003.58
